Date String (YYYY-MM-DD hh:mm:ss) UTC,Instrument flags,absolute air pressure of the measurement (hPa),sample flow rate (lpm),inlet stack bypass flow (lpm),air temperature of the measurement (°C),ambient temperature measured by the external sensor (°C),aerosol sample conditioner tube jacket temperature (°C),OPC LED temperature (°C),internal box temperature (°C),relative humidity of the measurement (%),span deviation,mass concentration of particles derived from Lorenz-Mie calculation of OPC scattering (μg/m³),mass concentration of particles derived from Lorenz-Mie calculation of OPC scattering (μg/m³),mass concentration of particles derived from Lorenz-Mie calculation of OPC scattering (μg/m³)
DateTimeUTC,F1_M11,P_M11,Q1_M11,Q2_M11,T1_M11,T2_M11,T3_M11,T4_M11,T5_M11,U1_M11,ZSPAN_M11,X0_M11,X2_M11,X1_M11
2024-03-24 20:00:00,SystemResetWarning,0807.0,5.00,000.00,022.9,022.3,000.0,031.2,024.7,18.5,0001.5,0026.09,0014.12,0012.52
2024-03-24 20:01:00,SystemResetWarning,0807.0,5.00,000.00,022.9,022.3,000.0,031.2,024.8,18.4,0001.5,0025.32,0013.81,0012.28
2024-03-24 20:02:00,SystemResetWarning,0807.0,5.00,000.00,022.9,022.3,000.0,031.3,024.8,18.5,0001.2,0025.06,0013.58,0012.02
2024-03-24 20:03:00,SystemResetWarning,0806.9,5.02,000.00,022.9,022.3,000.0,031.3,024.8,18.3,0001.1,0025.34,0013.32,0011.77
2024-03-24 20:04:00,SystemResetWarning,0806.9,5.01,000.00,022.9,022.4,000.0,031.3,024.8,18.7,0001.5,0024.43,0013.11,0011.58
2024-03-24 20:05:00,SystemResetWarning,0806.9,5.00,000.00,022.9,022.4,000.0,031.3,024.8,19.1,0001.7,0024.09,0013.01,0011.48
2024-03-24 20:06:00,SystemResetWarning,0806.9,4.99,000.00,023.0,022.4,000.0,031.3,024.8,19.3,0002.1,0024.66,0013.04,0011.45
2024-03-24 20:07:00,SystemResetWarning,0806.9,4.99,000.00,023.0,022.4,000.0,031.3,024.8,19.4,0002.2,0025.22,0013.09,0011.49
2024-03-24 20:08:00,SystemResetWarning,0806.9,5.01,000.00,023.0,022.4,000.0,031.3,024.9,19.2,0002.3,0025.90,0013.08,0011.47
2024-03-24 20:09:00,SystemResetWarning,0806.9,5.01,000.00,023.0,022.4,000.0,031.3,024.9,19.1,0002.6,0026.53,0013.01,0011.41
2024-03-24 20:10:00,SystemResetWarning,0806.9,5.00,000.00,023.0,022.5,000.0,031.4,024.9,18.8,0002.8,0027.01,0012.95,0011.32
2024-03-24 20:11:00,SystemResetWarning,0806.8,4.99,000.00,023.0,022.5,000.0,031.4,024.9,18.5,0002.8,0026.96,0012.77,0011.19
2024-03-24 20:12:00,SystemResetWarning,0806.9,4.99,000.00,023.0,022.5,000.0,031.4,024.9,18.1,0002.5,0025.70,0012.65,0011.04
2024-03-24 20:13:00,SystemResetWarning,0806.8,4.99,000.00,023.1,022.5,000.0,031.4,024.9,17.9,0002.5,0025.24,0012.49,0010.91
2024-03-24 20:14:00,SystemResetWarning,0806.8,5.00,000.00,023.1,022.5,000.0,031.4,024.9,17.5,0002.6,0024.57,0012.29,0010.75
2024-03-24 20:15:00,SystemResetWarning,0806.8,5.01,000.00,023.1,022.4,000.0,031.4,024.9,18.0,0002.3,0024.24,0012.11,0010.59
2024-03-24 20:16:00,SystemResetWarning,0806.9,5.01,000.00,023.1,022.4,000.0,031.4,024.9,17.6,0002.2,0023.82,0011.81,0010.35
2024-03-24 20:17:00,SystemResetWarning,0806.8,5.00,000.00,023.1,022.4,000.0,031.4,024.9,17.5,0001.7,0023.69,0011.39,0010.00
2024-03-24 20:18:00,SystemResetWarning,0806.7,4.99,000.00,023.1,022.4,000.0,031.5,024.9,17.5,0001.5,0023.05,0011.06,0009.67
2024-03-24 20:19:00,SystemResetWarning,0806.7,5.00,000.00,023.1,022.5,000.0,031.5,024.9,17.6,0001.7,0021.50,0010.81,0009.42
2024-03-24 20:20:00,SystemResetWarning,0806.7,5.00,000.00,023.1,022.5,000.0,031.5,025.0,17.9,0001.5,0020.73,0010.57,0009.22
2024-03-24 20:21:00,SystemResetWarning,0806.8,5.00,000.00,023.1,022.5,000.0,031.5,025.0,18.2,0001.4,0020.28,0010.44,0009.09
2024-03-24 20:22:00,SystemResetWarning,0806.7,5.01,000.00,023.1,022.5,000.0,031.5,025.0,18.5,0001.4,0020.83,0010.43,0009.06
2024-03-24 20:23:00,SystemResetWarning,0806.7,5.00,000.00,023.1,022.6,000.0,031.5,025.0,18.5,0002.1,0021.18,0010.48,0009.06
2024-03-24 20:24:00,SystemResetWarning,0806.8,5.00,000.00,023.2,022.6,000.0,031.5,025.0,17.8,0002.2,0021.42,0010.45,0009.05
2024-03-24 20:25:00,SystemResetWarning,0806.7,4.99,000.00,023.2,022.6,000.0,031.5,025.0,17.8,0002.2,0021.56,0010.42,0009.03
2024-03-24 20:26:00,SystemResetWarning,0806.7,4.99,000.00,023.2,022.6,000.0,031.5,025.0,18.2,0002.1,0021.73,0010.39,0008.99
2024-03-24 20:27:00,SystemResetWarning,0806.7,4.99,000.00,023.2,022.6,000.0,031.6,025.0,18.5,0002.1,0021.52,0010.36,0009.00
2024-03-24 20:28:00,SystemResetWarning,0806.6,5.01,000.00,023.2,022.7,000.0,031.6,025.1,18.6,0002.3,0020.79,0010.48,0009.08
2024-03-24 20:29:00,SystemResetWarning,0806.6,5.01,000.00,023.2,022.7,000.0,031.6,025.1,18.4,0002.3,0020.08,0010.57,0009.15
2024-03-24 20:30:00,SystemResetWarning,0806.7,4.99,000.00,023.3,022.7,000.0,031.6,025.1,18.6,0001.8,0019.94,0010.61,0009.20
2024-03-24 20:31:00,SystemResetWarning,0806.6,5.00,000.00,023.3,022.7,000.0,031.6,025.1,18.5,0001.8,0020.12,0010.65,0009.25
2024-03-24 20:32:00,SystemResetWarning,0806.6,5.00,000.00,023.3,022.7,000.0,031.6,025.1,18.3,0001.7,0020.28,0010.66,0009.26
2024-03-24 20:33:00,SystemResetWarning,0806.7,5.00,000.00,023.3,022.7,000.0,031.6,025.1,18.2,0001.6,0019.59,0010.66,0009.26
2024-03-24 20:34:00,SystemResetWarning,0806.6,5.00,000.00,023.3,022.7,000.0,031.7,025.1,18.0,0001.4,0019.26,0010.62,0009.25
2024-03-24 20:35:00,SystemResetWarning,0806.6,5.00,000.00,023.3,022.7,000.0,031.7,025.1,17.8,0001.5,0019.53,0010.59,0009.23
2024-03-24 20:36:00,SystemResetWarning,0806.6,5.00,000.00,023.3,022.7,000.0,031.7,025.2,17.7,0001.5,0019.62,0010.59,0009.23
2024-03-24 20:37:00,SystemResetWarning,0806.6,5.00,000.00,023.4,022.7,000.0,031.7,025.2,17.7,0001.8,0019.80,0010.55,0009.21
2024-03-24 20:38:00,SystemResetWarning,0806.6,5.00,000.00,023.4,022.7,000.0,031.7,025.2,17.5,0001.8,0021.74,0010.48,0009.16
2024-03-24 20:39:00,SystemResetWarning,0806.6,5.00,000.00,023.4,022.8,000.0,031.7,025.2,17.7,0001.5,0022.57,0010.42,0009.10
2024-03-24 20:40:00,SystemResetWarning,0806.6,5.00,000.00,023.4,022.8,000.0,031.7,025.2,17.8,0001.1,0022.72,0010.39,0009.06
2024-03-24 20:41:00,SystemResetWarning,0806.5,5.00,000.00,023.4,022.8,000.0,031.8,025.2,17.8,0001.4,0022.82,0010.33,0009.00
2024-03-24 20:42:00,SystemResetWarning,0806.5,5.00,000.00,023.4,022.8,000.0,031.8,025.2,17.7,0001.4,0023.71,0010.32,0008.94
2024-03-24 20:43:00,SystemResetWarning,0806.5,5.00,000.00,023.4,022.8,000.0,031.8,025.3,17.8,0001.6,0023.90,0010.28,0008.88
2024-03-24 20:44:00,SystemResetWarning,0806.5,5.00,000.00,023.4,022.9,000.0,031.8,025.3,18.2,0001.5,0023.74,0010.14,0008.79
2024-03-24 20:45:00,SystemResetWarning,0806.5,4.99,000.00,023.5,022.9,000.0,031.8,025.3,18.3,0001.6,0023.82,0010.08,0008.76
2024-03-24 20:46:00,SystemResetWarning,0806.5,5.00,000.00,023.5,022.9,000.0,031.8,025.3,18.4,0001.9,0024.25,0010.10,0008.78
2024-03-24 20:47:00,SystemResetWarning,0806.5,5.01,000.00,023.5,022.9,000.0,031.8,025.3,18.3,0001.7,0024.07,0010.17,0008.85
2024-03-24 20:48:00,SystemResetWarning,0806.5,5.01,000.00,023.5,022.9,000.0,031.8,025.3,18.1,0001.3,0024.26,0010.30,0008.91
2024-03-24 20:49:00,SystemResetWarning,0806.5,5.00,000.00,023.5,022.9,000.0,031.9,025.3,18.0,0001.3,0022.77,0010.42,0008.98
2024-03-24 20:50:00,SystemResetWarning,0806.5,4.99,000.00,023.5,022.9,000.0,031.9,025.3,17.8,0001.8,0021.95,0010.47,0009.04
2024-03-24 20:51:00,SystemResetWarning,0806.4,4.99,000.00,023.5,022.9,000.0,031.9,025.3,17.6,0002.1,0022.11,0010.44,0009.05
2024-03-24 20:52:00,SystemResetWarning,0806.4,5.00,000.00,023.5,022.9,000.0,031.9,025.4,17.5,0002.0,0022.06,0010.43,0009.04
2024-03-24 20:53:00,SystemResetWarning,0806.4,5.01,000.00,023.5,022.9,000.0,031.9,025.4,17.4,0002.3,0021.05,0010.40,0009.03
2024-03-24 20:54:00,SystemResetWarning,0806.4,5.01,000.00,023.5,022.9,000.0,031.9,025.4,17.7,0002.4,0019.90,0010.34,0009.00
2024-03-24 20:55:00,SystemResetWarning,0806.4,5.00,000.00,023.6,023.0,000.0,031.9,025.4,18.3,0002.6,0019.93,0010.39,0009.03
2024-03-24 20:56:00,SystemResetWarning,0806.4,4.99,000.00,023.6,023.0,000.0,031.9,025.4,18.0,0002.9,0020.18,0010.42,0009.02
2024-03-24 20:57:00,SystemResetWarning,0806.4,5.00,000.00,023.6,023.0,000.0,032.0,025.4,17.8,0002.8,0019.38,0010.38,0008.96
2024-03-24 20:58:00,SystemResetWarning,0806.3,5.00,000.00,023.6,023.0,000.0,032.0,025.4,18.0,0002.9,0019.02,0010.27,0008.87
2024-03-24 20:59:00,SystemResetWarning,0806.3,5.01,000.00,023.6,022.9,000.0,032.0,025.4,17.8,0003.0,0018.78,0010.16,0008.80
